Regional Weather Roundup
Issued by NWS

Home | Current Version | Previous Version | Text Only | Print | Product List | Glossary Off
Versions: 1 2 3 4 5 6 7 8 9 10 11 12 13 14 15 16 17 18 19 20 21 22 23 24 25 26 27 28 29 30 31 32 33 34 35 36 37 38 39 40 41 42 43 44 45 46 47 48 49 50

000
ASUS45 KTFX 050110
RWRMT
MONTANA REGIONAL WEATHER ROUNDUP
NATIONAL WEATHER SERVICE GREAT FALLS MT
700 PM MDT SAT JUL 04 2015

NOTE: "FAIR" INDICATES FEW OR NO CLOUDS BELOW 12000 FEET WITH NO
SIGNIFICANT WEATHER AND/OR OBSTRUCTIONS TO VISIBILITY.

MTZ001>007-043-050200-
WEST OF THE DIVIDE

CITY           SKY/WX    TMP DP  RH WIND       PRES   REMARKS
KALISPELL      PTCLDY    92  42  17 W13G20    29.69F
MISSOULA       MOSUNNY   95  35  12 NW15      29.74S HX  90
BUTTE          PTSUNNY   87  28  12 NW9       29.90F
MULLAN PASS    SUNNY     76  40  27 VRB3      30.00F
DEER LODGE       N/A     90  39  17 N5        29.87S
EUREKA           N/A     91  45  19 W8        29.70S
HAMILTON         N/A     91  43  18 W14       29.75F
LIBBY            N/A     93  43  17 W3        29.71S
RONAN            N/A     94  46  19 W12       29.80S HX  90
$$

MTZ008-052>055-050200-
SOUTHWEST MONTANA

CITY           SKY/WX    TMP DP  RH WIND       PRES   REMARKS
BOZEMAN        PTSUNNY   90  46  21 N7        29.82F
DILLON         PTSUNNY   90  35  14 N6        29.86F
W YELLOWSTONE  PTSUNNY   81  37  21 SW12      30.03S
$$

MTZ009-010-012-014-046-048-049-054-050200-
EAST SLOPES AND CENTRAL MONTANA

CITY           SKY/WX    TMP DP  RH WIND       PRES   REMARKS
CUT BANK       MOSUNNY   82  49  31 E10       29.81F
GREAT FALLS    SUNNY     88  48  25 E8        29.78F
MALMSTROM AFB  SUNNY     88  47  24 N8        29.77F
HELENA         MOSUNNY   96  37  12 NW12      29.74F HX  91
$$

MTZ011-013-016-021-045-047-050-051-050200-
NORTH CENTRAL MONTANA

CITY           SKY/WX    TMP DP  RH WIND       PRES   REMARKS
HAVRE          SUNNY     85  51  31 E16       29.77F
LEWISTOWN      SUNNY     88  50  27 N9        29.83F
CHINOOK          N/A     82  54  36 NE10G17   29.78S
FORT BENTON      N/A     88  54  31 NE10      29.74
$$

MTZ017>020-022>027-061-062-050200-
NORTHEAST MONTANA

CITY           SKY/WX    TMP DP  RH WIND       PRES   REMARKS
GLASGOW        SUNNY     84  55  36 NE17      29.77R
JORDAN           N/A     88  60  38 NE18      29.75R
SIDNEY         SUNNY     84  63  48 N14       29.72R
WOLF POINT     SUNNY     85  61  44 NE18G24   29.74R
PLENTYWOOD       N/A     77  61  57 N12       29.77R
POPLAR           N/A     81  63  54 N14       29.74R
$$

MTZ028>42-056>058-050200-
SOUTHCENTRAL AND SOUTHEAST MONTANA

CITY           SKY/WX    TMP DP  RH WIND       PRES   REMARKS
BAKER          CLOUDY    75  59  57 SE6       29.77F
BILLINGS       PTSUNNY   97  36  12 NE9       29.76F HX  92
LIVINGSTON     MOSUNNY   93  36  13 N10       29.82F
MILES CITY     MOSUNNY   91  54  28 E10       29.69R
FORSYTH          N/A     97  45  16 NW12G20   29.69S HX  93
LAUREL           N/A     95  43  16 E2        29.77S HX  91
ROUNDUP          N/A     92  45  19 N12       29.72S
$$

REGIONAL REPORTS...DAKOTAS

CITY           SKY/WX    TMP DP  RH WIND       PRES   REMARKS
WILLISTON      MOSUNNY   81  65  58 N13       29.72R
MINOT          TSTM      73  66  78 W18G26    29.74R
DICKINSON      LGT RAIN  84  48  28 W16G30    29.73R
BEACH          FAIR      75  63  64 SE10      29.76R
CROSBY         FAIR      75  72  88 N17       29.76R
BISMARCK       CLOUDY    81  72  74 S8        29.70F
GRAND FORKS    PTSUNNY   81  68  64 S10       29.71R
FARGO          SUNNY     82  65  56 S16G23    29.73F
BUFFALO SD       N/A     86  57  37 E9        29.71R
RAPID CITY     SUNNY     87  63  44 CALM      29.79S
$$

REGIONAL REPORTS...WYOMING/IDAHO/WASHINGTON

CITY           SKY/WX    TMP DP  RH WIND       PRES   REMARKS
GILLETTE       SUNNY     87  48  25 SE10      29.83F
SHERIDAN       SUNNY     93  48  21 CALM      29.79F
BUFFALO WY     SUNNY     88  52  29 N6        29.88F
CODY           MOSUNNY   91  43  18 NE6       29.86S
YELLOWSTONE LA   N/A     77  35  21 CALM      30.15S
IDAHO FALLS    PTSUNNY   90  43  19 S12G17    29.87F
SALMON         PTSUNNY   90  50  25 N6        29.74S
BOISE          PTSUNNY   98  35  11 N8        29.75F HX  93
SPOKANE        MOSUNNY   96  43  16 VRB5      29.70F HX  92
$$

REGIONAL REPORTS...ALBERTA

CITY           SKY/WX    TMP DP  RH WIND       PRES   REMARKS
EDMONTON       LGT RAIN  63  41  45 N20G36    29.98R
CALGARY        CLOUDY    54  46  76 N25G32    30.06R
LETHBRIDGE     CLOUDY    73  55  53 N10       29.87R THUNDER
MEDICINE HAT   CLOUDY    77  46  33 NE15G22   29.80S
CARDSTON         N/A     68  63  83 NE13G21     N/A
MILK RIVER       N/A     77  50  38 NE12        N/A
$$

REGIONAL REPORTS...SASKATCHEWAN

CITY           SKY/WX    TMP DP  RH WIND       PRES   REMARKS
SWIFT CURRENT  SUNNY     73  48  40 MISG      29.86S
REGINA         PTSUNNY   73  61  64 NW7       29.80R SMOKE
SASKATOON      SMOKE     68  45  42 NE8       29.86R VSB 1
CYPRESS HILLS    N/A     66  46  48 E6          N/A
VAL MARIE        N/A     77  50  38 NE15        N/A
ROCKGLEN         N/A     73  54  49 N15         N/A
ASSINIBOIA       N/A     68  43  40 W12G17      N/A
$$



USA.gov is the U.S. government's official web portal to all federal, state and local government web resources and services.